Weather History for Eastover, SC

Change the Weather History Date:

Thursday, August 14, 2014

  Actual Average Record
Temperature  
Mean Temperature 75 °F -  
Max Temperature 85 °F 88 °F 99 °F (1999)
Min Temperature 65 °F 70 °F 60 °F (2008)
Cooling Degree Days 10    
Growing Degree Days 25 (Base 50)    
Moisture  
Dew Point 62 °F    
Average Humidity 66    
Maximum Humidity 98    
Minimum Humidity 44    
Precipitation  
Precipitation 0.00 in - - ()
Sea Level Pressure  
Sea Level Pressure 30.01 in    
Wind  
Wind Speed 4 mph (NE)    
Max Wind Speed 9 mph    
Max Gust Speed -    
Visibility 10 miles    
Events      
Averages and records for this station are not official NWS values.
T = Trace of Precipitation, MM = Missing Value Source: NWS Daily Summary

Daily Weather History Graph

Daily Weather History Graph

Search for Another Location

Airport:

Trip Planner

Search our weather history database for the weather conditions in past years. The results will help you decide how hot, cold, wet, or windy it might be!

Date:

Astronomy

Aug. 14, 2014 Rise Set
Actual Time 6:44 AM EDT 8:11 PM EDT
Civil Twilight 6:17 AM EDT 8:37 PM EDT
Nautical Twilight 5:45 AM EDT 9:09 PM EDT
Astronomical Twilight 5:12 AM EDT 9:42 PM EDT
Moon 10:49 PM EDT (8/14) 11:04 AM EDT (8/14)
Length of Visible Light 14h 19m
Length of Day
13h 26m
Waning Gibbous, 79% of the Moon is Illuminated
Aug 14
Waning Gibbous
Aug 17
Last Quarter
Aug 25
New
Sep 2
First Quarter
Sep 8
Full

Hourly Weather History & Observations

Time (EDT) Temp. Heat Index Dew Point Humidity Pressure Visibility Wind Dir Wind Speed Gust Speed Precip Events Conditions
12:58 AM 72.0 °F - 63.1 °F 74% 29.98 in 10.0 mi NE 5.8 mph - N/A   Clear
1:58 AM 70.3 °F - 62.2 °F 75% 29.99 in 10.0 mi NNE 3.5 mph - N/A   Clear
2:58 AM 69.1 °F - 62.2 °F 79% 29.98 in 10.0 mi NNE 1.2 mph - N/A   Clear
3:58 AM 68.0 °F - 61.5 °F 80% 29.99 in 10.0 mi Calm Calm - N/A   Clear
4:58 AM 67.5 °F - 60.1 °F 77% 29.99 in 10.0 mi NNE 4.6 mph - N/A   Clear
5:58 AM 67.3 °F - 59.0 °F 75% 30.00 in 10.0 mi Variable 5.8 mph - N/A   Clear
6:58 AM 65.8 °F - 58.5 °F 77% 30.02 in 10.0 mi NNE 3.5 mph - N/A   Partly Cloudy
7:58 AM 67.5 °F - 59.0 °F 74% 30.04 in 10.0 mi NNE 6.9 mph - N/A   Partly Cloudy
8:58 AM 71.6 °F - 59.7 °F 66% 30.05 in 10.0 mi NE 9.2 mph - N/A   Partly Cloudy
9:58 AM 75.9 °F - 60.1 °F 58% 30.06 in 10.0 mi Variable 6.9 mph - N/A   Partly Cloudy
10:58 AM 77.9 °F - 59.2 °F 52% 30.07 in 10.0 mi NE 6.9 mph - N/A   Partly Cloudy
11:58 AM 79.9 °F - 59.4 °F 49% 30.07 in 10.0 mi East 6.9 mph - N/A   Partly Cloudy
12:58 PM 81.1 °F 81.4 °F 58.6 °F 46% 30.05 in 10.0 mi Variable 5.8 mph - N/A   Partly Cloudy
1:58 PM 82.8 °F 82.8 °F 59.5 °F 45% 30.04 in 10.0 mi Variable 3.5 mph - N/A   Partly Cloudy
2:58 PM 84.2 °F 84.6 °F 61.2 °F 46% 30.00 in 10.0 mi Variable 4.6 mph - N/A   Partly Cloudy
3:58 PM 85.1 °F 85.2 °F 60.8 °F 44% 29.99 in 10.0 mi WNW 2.3 mph - N/A   Scattered Clouds
4:58 PM 84.9 °F 85.0 °F 60.4 °F 44% 29.97 in 10.0 mi Variable 3.5 mph - N/A   Scattered Clouds
5:58 PM 84.9 °F 85.0 °F 60.4 °F 44% 29.99 in 10.0 mi South 4.6 mph - N/A   Scattered Clouds
6:58 PM 83.5 °F 84.1 °F 62.1 °F 48% 29.99 in 10.0 mi South 4.6 mph - N/A   Scattered Clouds
7:58 PM 76.3 °F - 65.7 °F 70% 29.99 in 10.0 mi NE 2.3 mph - N/A   Partly Cloudy
8:58 PM 72.1 °F - 67.1 °F 84% 30.00 in 10.0 mi East 2.3 mph - N/A   Partly Cloudy
9:58 PM 70.2 °F - 66.6 °F 88% 30.01 in 10.0 mi Calm Calm - N/A   Partly Cloudy
10:58 PM 68.2 °F - 66.7 °F 95% 30.01 in 10.0 mi Calm Calm - N/A   Partly Cloudy
11:58 PM 66.9 °F - 66.2 °F 98% 30.02 in 9.0 mi Calm Calm - N/A   Clear